Theta_e
289 288 288 287 287 287 287 287 287 287 287 287 286 286 286 286 286 286 287 287 287 287 287 287 288 289 290 291 291 292 293 294 295 295 297 297 297 297 296 295 294 294 294 294 295 295 295 295 295 295 295 295 295 295 294 294 294 294 294 295 295 296 297 298 299 300 301 302 304 307 308 310 311 312 312 313 315 315 315 316 316 316 316 316 315 315 314 313 314 316 318 319 319 319 319 318 316 315 314 313 313 313 313
289 288 288 287 287 287 287 286 286 286 286 286 286 285 285 285 285 286 286 286 286 287 287 287 287 288 289 290 291 291 291 292 293 294 295 296 296 296 296 295 294 294 294 294 294 295 295 295 295 294 295 295 294 294 294 294 293 293 293 293 294 294 296 296 297 298 299 300 302 303 305 307 308 309 309 310 311 311 311 312 312 312 312 311 310 310 311 312 313 315 317 318 318 318 318 318 317 316 314 313 312 313 313
288 288 287 287 286 286 286 286 286 286 285 284 285 285 285 284 284 285 285 286 286 287 286 286 287 288 289 289 290 290 290 291 292 293 294 295 296 296 296 295 295 295 295 295 295 295 295 294 294 294 294 294 294 294 294 293 293 292 292 292 293 293 294 295 296 297 298 298 299 301 302 304 305 306 307 307 307 308 308 309 309 309 308 308 308 309 310 311 312 313 315 316 317 316 316 316 316 316 314 312 311 312 313
287 287 286 286 286 286 285 285 285 285 284 283 283 284 284 284 284 285 285 286 286 286 286 286 287 288 288 288 289 289 289 291 292 292 293 294 296 297 297 296 296 296 296 295 295 295 295 294 293 293 293 294 294 294 293 293 292 292 291 291 292 292 293 294 295 296 296 297 298 299 300 301 303 304 304 305 305 305 306 306 307 307 307 307 307 307 307 308 308 309 311 313 315 315 313 313 313 313 311 310 310 312 313
286 286 286 285 285 285 285 284 284 284 284 283 283 284 284 284 284 284 285 286 286 286 286 286 287 287 288 288 288 288 289 290 291 292 292 293 295 298 298 298 297 296 296 296 295 296 296 295 295 294 294 294 294 294 293 293 292 291 291 291 291 291 292 293 294 295 295 296 296 297 298 299 300 302 302 303 303 303 303 304 305 305 305 304 304 304 304 304 305 306 307 308 310 313 312 311 310 310 310 310 310 311 311
285 285 285 284 284 284 284 284 283 283 284 284 284 284 284 284 284 284 285 285 286 286 286 286 286 287 287 287 287 288 288 290 291 291 292 293 296 298 299 298 297 296 296 295 295 295 295 295 295 295 294 294 294 293 292 292 292 291 291 290 290 290 291 292 293 293 294 295 295 296 296 297 298 299 300 301 301 302 301 302 302 303 302 302 302 302 302 302 302 303 304 305 306 309 311 310 309 308 308 308 308 309 310
284 284 284 284 283 283 283 282 283 283 283 283 283 283 283 283 284 284 284 285 285 285 285 285 286 286 287 287 287 287 288 289 291 291 292 294 297 299 299 298 297 296 296 295 294 294 294 294 294 294 294 293 293 292 292 291 291 291 290 290 290 290 290 291 292 292 293 294 294 295 295 296 296 297 298 299 300 300 300 300 300 301 301 300 300 299 299 299 300 300 301 303 303 305 308 309 309 307 306 306 306 308 309
283 283 283 283 282 282 282 282 282 282 282 282 283 283 283 283 283 284 284 285 285 285 285 285 285 286 286 286 286 287 287 288 289 290 291 294 295 297 297 297 296 296 295 294 294 293 293 293 292 292 292 292 291 291 291 291 290 290 290 289 289 289 290 290 291 291 292 293 293 293 294 294 295 296 297 297 298 298 298 299 299 299 299 299 299 298 298 297 298 298 299 300 301 302 303 305 307 307 306 305 306 306 308
282 282 282 282 282 282 282 282 282 282 282 282 283 283 283 283 284 284 284 284 285 285 285 285 285 286 286 286 286 286 287 287 288 289 291 292 293 293 294 294 294 294 293 293 292 292 291 290 290 289 289 289 290 290 290 290 290 289 289 289 289 289 289 290 290 290 291 292 292 292 293 293 294 295 295 296 296 297 297 298 298 298 298 298 298 297 297 297 297 298 298 299 299 300 300 300 302 305 306 305 305 306 307
281 281 281 281 281 282 282 282 282 281 282 282 282 283 283 284 284 284 284 285 285 285 285 285 285 285 286 286 286 286 286 287 287 289 290 290 290 290 291 292 292 291 290 290 289 288 288 288 288 287 287 288 288 289 289 289 289 289 289 289 289 289 289 289 289 290 290 291 291 291 292 292 292 293 293 294 295 295 296 296 296 297 297 297 297 297 297 297 297 297 297 298 298 299 299 299 299 301 303 305 306 305 305
280 280 280 280 281 281 281 281 281 281 281 282 282 283 283 284 284 284 284 284 284 285 284 284 284 285 285 286 286 285 286 286 287 288 289 289 288 288 289 289 289 289 289 288 288 288 287 287 288 288 288 288 288 288 288 288 289 289 289 289 289 289 289 289 289 289 290 290 291 291 291 291 291 291 292 293 293 293 294 294 295 295 296 296 295 296 296 296 296 296 296 297 297 298 299 299 298 299 301 303 305 305 304
279 279 279 279 279 279 279 280 280 280 281 281 282 283 283 284 284 284 284 284 284 284 284 284 284 285 285 286 285 285 286 286 287 287 288 288 287 287 287 287 287 288 288 288 288 287 287 288 289 289 289 289 289 288 288 289 289 288 288 288 289 289 288 288 288 289 289 290 290 291 291 290 291 290 291 291 292 292 292 293 293 294 294 294 294 294 294 295 295 296 296 296 297 297 297 297 297 298 299 300 301 301 301
279 278 278 279 279 279 279 279 280 280 281 281 282 283 283 283 284 284 284 284 284 284 284 284 284 284 285 286 285 285 286 286 286 286 287 287 286 286 286 286 286 286 287 287 287 287 287 287 288 289 289 289 289 289 289 288 288 288 288 288 288 288 288 289 288 288 289 289 290 290 290 290 290 290 290 290 291 291 291 291 292 292 293 293 293 293 293 294 295 296 296 296 296 296 296 296 296 297 296 296 296 296 295
278 278 278 278 278 279 279 280 280 281 281 282 282 283 283 283 283 283 283 283 283 283 284 284 284 284 285 285 285 285 285 286 286 285 286 286 286 286 285 285 285 285 286 286 286 286 286 287 287 288 289 289 289 289 289 288 287 287 287 288 288 288 288 288 288 288 288 289 289 289 289 290 290 290 289 290 290 290 290 291 291 292 292 292 292 292 293 293 294 295 295 295 295 296 295 295 295 295 295 295 294 295 294
278 278 278 278 278 279 279 280 280 281 281 282 282 282 283 283 283 283 283 283 283 283 284 284 283 283 284 284 285 285 285 286 286 285 285 286 286 286 285 284 284 284 284 285 285 286 286 287 287 288 288 289 288 288 288 287 287 287 287 287 287 287 288 288 288 288 288 288 288 289 289 289 290 290 289 289 289 290 290 290 290 291 291 291 291 291 292 292 293 293 294 294 294 294 294 295 295 294 294 294 294 294 294
278 278 278 278 278 279 279 280 280 280 281 281 281 282 282 282 283 283 283 283 283 283 283 283 283 283 283 284 284 284 284 285 285 284 284 285 286 286 285 284 284 283 283 283 284 285 286 286 286 287 287 287 287 287 287 287 286 286 286 286 287 287 287 288 288 288 288 288 288 288 288 289 289 289 289 289 289 289 289 289 290 290 291 290 290 290 291 292 292 293 293 293 293 293 293 293 293 293 293 294 294 294 293
278 278 278 278 278 279 279 280 280 280 281 281 281 281 282 282 283 283 283 283 283 282 283 283 283 282 282 283 283 284 284 284 284 284 284 284 284 285 284 284 283 283 282 282 283 284 284 285 285 286 286 286 286 286 286 286 285 285 286 286 286 286 287 287 287 288 288 288 288 288 288 288 288 289 289 289 288 288 288 289 290 291 291 290 290 290 291 291 291 292 292 292 292 292 292 292 292 292 292 293 293 293 293
278 279 278 278 279 279 280 280 280 280 280 280 280 281 282 282 282 282 282 282 282 282 282 282 282 282 282 283 283 283 283 283 283 283 283 283 283 284 283 283 283 283 282 282 282 282 283 283 284 284 284 284 285 285 285 285 285 285 285 285 285 286 286 286 287 287 287 287 287 287 287 288 288 288 288 288 288 288 288 288 289 291 290 290 290 290 290 290 291 291 292 292 292 292 292 292 292 291 292 292 292 292 292
278 279 279 279 279 280 279 279 280 280 280 280 280 281 281 282 282 282 282 282 282 282 282 281 281 281 282 282 283 283 283 283 283 282 282 282 282 282 283 283 283 283 282 282 282 282 282 282 283 283 283 283 284 284 284 284 284 284 284 285 285 285 286 286 286 287 287 287 287 287 287 287 287 287 287 287 287 287 288 288 288 289 289 289 289 289 290 290 291 291 291 292 292 292 292 291 291 291 291 291 292 292 291
278 279 279 279 279 279 279 279 280 280 280 279 279 280 281 281 281 281 281 281 281 281 281 281 281 281 281 282 282 283 283 283 282 282 282 282 282 282 282 282 282 282 282 282 282 282 282 282 282 282 282 283 283 283 283 283 284 284 284 285 285 285 285 285 286 286 286 286 286 286 286 287 287 287 287 287 287 287 287 287 287 287 288 288 289 289 289 290 291 291 291 291 291 291 291 291 291 290 291 291 291 291 291
279 279 278 278 279 279 279 279 280 280 280 279 279 279 280 281 281 281 281 281 281 281 281 281 281 281 281 281 282 282 282 282 282 282 281 282 281 281 281 282 282 282 282 282 283 283 282 282 282 282 282 283 283 283 283 283 283 284 284 284 284 284 285 285 285 285 285 285 285 285 286 286 286 286 286 286 286 286 286 286 286 286 287 287 288 288 289 290 290 291 290 290 290 290 290 290 290 290 290 290 290 290 290
278 278 278 278 279 279 279 279 279 280 280 279 279 279 280 280 280 281 281 280 280 280 280 280 281 280 281 281 281 281 282 282 282 281 281 281 281 281 281 281 281 282 282 283 283 283 282 282 283 283 283 283 283 283 283 283 283 283 284 284 284 284 284 284 284 284 284 285 285 285 285 285 285 286 285 285 285 285 285 285 286 286 286 286 287 287 288 289 289 290 289 289 289 289 288 288 288 288 289 289 289 289 289
278 278 278 279 279 279 279 279 279 279 279 278 278 279 280 280 280 280 280 280 280 280 280 280 280 280 280 281 281 281 281 281 281 281 281 281 281 281 281 281 281 282 282 283 283 283 283 283 283 283 283 283 283 283 283 283 283 283 283 283 284 284 284 284 284 284 284 284 284 285 285 285 285 285 285 285 285 285 285 285 285 285 285 285 286 287 287 288 288 288 288 288 288 287 287 287 287 288 288 288 288 288 288
278 278 278 279 279 279 279 279 279 278 278 278 278 279 279 280 280 280 279 280 280 280 280 280 280 280 280 281 281 281 281 281 281 281 281 280 281 281 281 281 281 282 282 283 283 283 283 283 283 284 283 283 283 283 284 284 284 283 283 284 284 284 284 284 284 284 284 284 284 285 285 285 284 284 284 284 284 284 284 284 284 284 284 285 285 286 286 287 287 287 287 287 287 286 286 286 286 287 287 287 287 288 288
278 278 278 279 279 279 279 278 277 277 277 277 278 278 278 278 279 279 279 279 279 279 279 280 280 280 280 280 281 281 281 281 281 281 280 280 280 280 280 281 281 282 282 283 283 283 284 283 283 284 284 284 284 283 283 283 283 283 283 284 284 284 284 284 284 284 284 284 284 285 285 284 284 284 284 284 284 284 284 284 284 284 284 284 284 285 285 286 286 286 285 285 285 285 285 285 285 286 286 286 286 287 287
278 278 277 277 277 277 276 275 275 275 276 277 277 277 277 278 278 279 279 279 279 279 279 280 280 280 280 280 280 280 281 281 281 280 280 280 280 280 280 281 281 282 282 282 282 283 283 283 283 283 283 283 283 283 283 283 283 283 283 283 284 284 284 284 284 284 284 284 284 284 284 284 284 284 284 283 283 283 283 283 283 283 283 283 283 284 284 285 285 284 284 284 283 283 283 283 284 284 284 285 285 285 285
277 276 274 273 273 273 273 273 274 275 276 277 277 277 277 278 278 279 279 279 279 279 279 280 280 280 280 280 280 280 280 280 280 280 280 280 280 280 280 281 281 281 281 281 282 282 282 283 283 282 283 283 283 283 283 283 283 284 283 283 283 283 283 284 284 284 284 284 284 284 284 284 284 283 283 283 283 283 283 283 283 283 283 282 282 283 283 283 284 284 283 283 282 282 282 282 282 283 283 283 284 283 284
277 275 273 272 272 272 272 273 274 274 275 277 278 277 277 278 279 279 279 279 279 279 279 280 280 280 280 280 280 280 280 280 280 280 280 280 280 280 280 280 280 280 280 281 281 281 282 282 282 282 282 282 282 283 283 283 284 284 284 283 283 283 283 283 283 283 283 283 283 283 283 283 283 283 282 282 282 282 282 282 282 282 282 282 282 282 282 282 283 283 282 282 281 281 281 281 281 282 282 282 282 282 283
276 273 272 272 272 273 273 274 274 275 275 277 277 278 279 279 280 280 280 280 279 279 279 279 280 280 280 280 281 281 280 280 280 280 280 280 279 279 279 279 279 280 280 280 280 281 281 281 281 281 281 281 282 283 283 283 283 284 284 283 283 283 283 283 282 282 282 282 282 282 282 282 282 282 282 282 281 281 281 282 282 282 282 282 281 281 282 282 282 282 282 281 281 280 280 280 280 281 281 281 282 282 282
273 272 272 272 273 273 274 274 274 274 275 275 275 276 277 278 278 279 279 279 278 278 278 279 279 280 280 280 280 281 280 280 280 280 280 279 279 279 279 279 279 279 280 280 280 280 280 280 281 281 281 281 282 282 283 283 283 283 283 283 283 283 282 282 282 282 282 282 282 282 281 281 281 281 281 281 281 281 281 281 281 281 281 281 281 281 281 281 281 281 281 281 280 280 279 279 280 280 280 280 281 281 281
271 271 271 272 272 273 274 274 274 274 274 274 275 276 276 276 277 278 278 278 278 277 277 278 278 279 279 280 280 280 281 280 280 280 280 280 279 279 279 279 279 279 279 280 280 280 280 280 280 281 281 281 282 282 282 282 283 283 283 283 282 282 282 282 282 282 281 281 281 281 281 280 280 280 280 280 280 280 280 280 280 280 280 280 281 281 281 281 281 281 280 280 280 279 279 279 279 279 279 279 279 280 280
271 271 271 272 273 273 274 275 275 275 274 275 276 276 277 277 277 277 277 278 278 278 278 278 278 278 278 279 280 280 281 281 281 280 280 280 280 279 279 279 279 279 279 280 279 280 280 280 280 281 281 282 282 282 282 281 282 282 282 282 282 281 281 281 281 281 281 281 280 280 280 280 280 280 280 279 279 279 279 279 279 280 280 280 280 280 280 280 280 280 280 279 279 279 279 279 278 279 278 278 278 278 279
271 271 272 273 274 274 275 275 275 275 275 275 275 276 277 277 277 277 277 277 278 278 278 277 277 277 278 279 279 279 280 280 280 280 280 280 280 280 279 279 279 279 279 279 280 280 280 280 280 280 281 281 281 282 281 281 281 281 281 281 281 281 281 281 281 281 280 280 280 280 280 279 279 279 279 279 279 279 279 279 279 279 279 279 279 279 279 279 279 279 279 278 278 278 278 278 278 277 277 277 277 277 278
272 272 273 274 274 275 275 276 276 276 276 276 276 277 278 278 277 277 277 277 278 278 277 277 277 277 277 277 278 279 279 279 279 279 279 279 279 279 279 279 279 280 279 279 280 280 280 280 280 280 280 281 281 281 281 281 281 281 281 282 282 281 281 281 280 280 280 280 280 279 279 279 279 279 278 278 278 278 278 278 278 278 278 278 278 279 279 279 278 278 278 278 278 277 277 277 277 277 276 276 276 276 276
272 272 273 274 274 275 276 277 277 277 277 277 277 278 278 277 277 277 277 277 278 277 277 277 277 276 276 276 277 277 278 278 278 278 278 278 278 279 279 279 279 279 279 279 279 279 279 280 280 280 280 280 280 280 281 281 281 282 282 282 282 282 281 281 280 280 279 279 279 279 279 279 278 278 278 278 278 278 278 278 278 278 278 278 278 278 278 278 278 278 277 277 277 277 276 276 276 276 275 275 275 276 275
272 272 273 274 275 275 277 277 278 277 277 277 277 277 276 276 276 277 277 277 278 277 277 277 277 276 276 276 276 277 277 277 277 277 277 278 278 278 278 278 278 278 278 279 279 279 279 279 279 279 279 280 280 280 280 280 280 281 281 281 281 282 281 281 280 280 279 279 279 279 278 278 278 278 278 278 277 277 277 277 277 277 277 277 277 277 278 277 277 277 276 276 276 276 276 276 275 275 275 275 274 275 274
273 274 274 275 276 277 277 277 277 277 277 276 276 276 275 275 276 276 276 277 277 277 277 276 276 276 276 276 276 277 277 277 277 277 277 277 277 277 277 277 277 278 278 278 278 279 278 279 279 279 279 279 279 279 279 279 279 279 280 280 280 281 281 281 280 280 280 279 279 279 279 279 278 278 278 277 277 276 276 276 277 277 277 277 277 277 277 277 277 276 276 275 275 275 275 275 275 274 274 274 274 274 274
274 275 276 277 277 278 278 278 278 277 276 276 275 275 274 275 275 275 275 276 276 276 276 276 276 276 276 276 276 276 276 276 277 277 277 276 276 276 276 276 277 277 277 277 278 278 278 278 278 278 278 278 278 278 279 279 279 279 279 279 279 280 280 280 280 280 279 279 278 278 278 278 278 278 278 277 277 276 276 276 276 277 277 277 277 278 277 277 277 276 275 275 274 274 274 274 274 274 273 273 273 273 274
275 276 277 278 279 279 279 278 277 276 276 275 275 274 274 274 274 275 275 275 275 275 275 275 275 275 275 276 276 276 276 276 277 277 277 277 276 276 276 276 276 276 276 276 276 277 277 277 277 277 277 278 278 277 278 278 278 278 279 279 279 279 280 280 280 279 279 278 278 278 278 278 277 277 277 277 277 277 277 276 276 276 276 277 278 278 277 277 277 276 275 274 274 273 274 274 274 274 273 273 273 274 274
276 277 278 278 279 278 278 277 276 275 275 274 274 274 274 274 274 274 274 274 274 274 274 275 275 275 275 275 276 276 276 276 276 276 276 276 276 276 276 276 276 276 276 276 276 276 276 276 276 276 276 277 277 277 277 277 277 278 278 278 278 278 279 279 279 279 278 278 279 279 278 277 277 277 277 278 277 276 276 276 276 276 276 277 277 278 276 276 276 276 275 275 274 273 273 273 273 273 273 273 274 274 274
277 278 278 278 278 277 277 276 275 274 274 274 274 274 274 274 274 274 274 273 273 273 274 274 274 274 275 275 275 276 276 276 276 276 276 276 276 275 275 275 275 275 275 275 275 275 275 275 275 275 276 276 276 276 276 276 276 277 277 277 277 277 278 278 278 278 278 278 278 278 278 277 277 277 277 278 277 276 276 275 275 275 275 276 277 278 276 275 275 275 275 275 274 273 273 273 272 272 272 273 273 273 274
277 278 278 278 277 277 276 275 274 273 274 274 274 274 274 274 274 274 274 273 273 273 273 273 274 274 274 274 275 275 275 275 275 275 275 275 275 274 275 275 275 275 274 275 275 275 275 274 275 275 275 275 275 275 275 275 276 276 276 276 277 277 276 276 276 276 277 277 277 277 277 277 277 277 278 278 277 276 275 275 274 274 274 276 277 277 276 275 274 275 275 274 274 273 273 273 273 272 272 272 272 273 274
277 278 278 278 277 276 275 274 273 273 274 274 274 274 274 274 274 274 274 273 273 273 273 273 273 273 274 274 274 274 275 275 274 274 274 274 274 273 273 273 274 274 274 274 274 274 274 274 274 274 274 274 274 274 274 274 275 275 275 276 276 276 275 275 275 275 276 276 276 276 276 277 277 278 278 278 277 276 275 275 274 273 273 275 277 276 275 274 274 275 275 275 274 273 273 273 273 273 272 272 272 273 274
276 277 278 278 277 276 274 273 273 273 274 274 274 274 274 274 274 274 273 273 273 273 273 273 273 273 273 273 274 274 274 273 273 273 273 273 272 272 272 272 272 272 273 273 273 273 273 274 274 275 274 274 274 274 274 274 274 274 275 275 275 275 275 275 275 275 274 274 275 275 276 277 278 278 278 277 276 275 274 274 273 272 273 275 276 275 274 274 275 276 275 275 274 273 273 273 274 274 273 273 274 274 274
276 277 277 277 277 276 274 273 273 273 273 274 274 274 273 273 273 273 273 273 273 273 273 273 273 272 273 273 273 273 273 272 272 272 272 272 271 271 271 271 271 271 272 272 272 272 273 273 274 274 274 274 274 274 274 274 274 274 274 274 274 274 275 274 274 274 274 274 274 275 277 278 278 278 278 278 277 277 276 274 273 272 273 274 276 277 276 276 276 276 276 275 274 273 273 273 274 274 274 274 275 275 274
276 277 277 277 277 277 274 273 273 273 273 273 274 273 273 273 273 272 272 272 272 272 272 273 273 272 272 272 272 272 272 272 271 271 271 271 270 270 270 270 271 271 271 271 271 272 272 273 274 274 273 273 273 273 273 273 273 274 274 274 274 274 275 274 274 274 274 274 274 276 278 279 279 279 279 278 278 277 276 275 274 274 272 273 275 277 276 276 275 276 276 275 274 273 273 274 275 274 274 274 274 274 273
276 277 277 277 277 277 275 274 273 273 273 274 274 273 273 272 272 272 272 272 272 272 272 272 272 272 272 272 272 272 271 271 271 270 270 270 270 270 270 270 270 270 271 271 271 271 272 273 274 274 272 272 272 272 272 272 272 272 273 273 274 274 275 275 275 274 274 274 275 277 278 279 279 279 278 278 277 276 275 275 275 275 272 274 276 276 275 274 274 275 276 276 274 273 273 274 275 274 274 274 273 272 271
277 277 277 277 277 277 275 274 273 273 274 274 274 273 273 272 272 271 271 272 272 271 271 271 271 271 271 271 271 271 271 270 270 270 270 269 269 269 269 269 269 270 270 270 271 271 272 273 273 273 272 271 271 271 272 272 272 272 272 272 273 274 274 275 275 274 274 274 275 277 278 278 279 278 278 278 277 276 275 274 274 274 272 273 274 273 275 276 275 276 276 276 275 273 273 274 274 274 274 273 272 271 270
277 277 277 277 277 276 275 274 273 273 273 274 274 274 272 272 271 271 271 271 271 271 271 270 271 270 271 271 271 270 270 270 270 269 269 269 269 269 269 269 269 269 269 270 270 271 271 271 272 272 271 271 271 271 272 272 272 272 272 272 272 272 273 273 273 273 273 274 275 277 278 278 277 277 276 276 276 275 274 273 272 272 271 272 273 274 277 278 277 277 276 276 275 274 274 274 273 273 272 271 270 270 270
278 278 278 278 277 275 274 273 273 273 274 274 274 273 273 272 271 271 271 271 271 271 271 271 270 270 270 270 270 270 270 269 269 269 268 268 268 268 268 269 269 269 269 269 270 270 270 271 271 272 272 272 272 272 272 272 272 272 272 272 272 273 273 273 273 273 273 274 275 277 277 277 276 275 274 273 273 272 272 271 271 271 271 271 273 277 279 280 279 279 278 276 275 275 275 274 273 272 271 271 270 270 270
278 278 278 277 276 275 275 274 274 274 274 274 274 274 273 272 271 271 271 271 271 271 271 270 270 270 270 270 270 269 269 269 269 269 268 268 268 268 268 268 268 268 269 269 269 270 270 270 270 272 273 273 272 272 272 272 272 273 272 272 272 273 273 273 273 273 273 275 276 276 276 275 274 273 273 272 271 270 270 270 270 270 271 272 274 278 279 280 280 280 279 278 276 275 275 274 273 272 271 271 271 270 270
278 278 278 277 276 275 275 274 274 274 274 274 274 274 273 272 271 271 271 271 270 270 270 270 270 270 270 270 269 269 269 269 268 268 267 267 268 268 268 268 268 268 268 268 268 269 269 269 270 273 274 273 273 273 272 272 272 272 272 272 272 272 272 273 273 273 274 275 276 275 275 274 273 272 272 272 271 270 270 270 270 270 271 272 275 279 279 280 280 280 280 279 278 276 275 273 272 271 271 271 271 270 270
278 278 278 277 275 274 274 274 274 274 274 274 274 274 273 272 271 272 271 270 270 270 270 270 270 270 270 270 269 269 269 268 268 267 267 267 267 268 268 267 267 267 267 268 268 269 269 269 270 273 273 272 272 272 272 272 272 272 272 272 272 272 272 272 272 272 273 274 275 275 274 273 272 271 271 271 270 270 270 269 269 269 270 272 276 280 280 280 280 280 280 280 279 277 274 273 272 271 271 270 270 270 270
279 278 278 276 275 274 274 274 274 274 274 273 273 273 272 272 272 271 270 270 270 270 270 270 270 270 269 269 268 268 268 268 267 267 267 267 267 267 267 267 267 267 267 267 268 268 269 269 270 270 271 271 271 271 272 272 273 273 273 273 273 272 272 272 272 272 273 273 274 273 272 271 271 270 270 270 269 269 269 269 269 269 269 272 276 280 280 280 280 280 280 280 280 279 275 272 271 270 270 270 269 269 269
279 279 278 277 276 275 274 274 273 273 273 273 272 272 272 272 271 270 270 270 270 270 270 270 269 269 268 268 268 268 267 267 266 266 266 266 266 266 267 267 267 267 267 267 267 268 269 269 269 269 271 272 273 273 273 273 272 273 273 273 273 272 272 272 272 272 273 273 273 272 271 271 270 270 269 269 269 268 268 268 269 270 270 272 276 280 280 280 280 280 280 280 280 280 277 274 272 270 269 269 269 269 269
280 279 277 276 275 274 273 273 273 273 273 273 273 273 272 271 270 271 271 271 271 270 270 270 269 268 268 268 268 268 267 266 266 266 267 266 266 265 266 266 267 267 266 266 266 267 268 269 269 270 271 273 274 273 273 272 272 273 274 274 273 272 272 272 273 272 273 273 272 271 271 270 270 269 269 268 268 268 269 270 269 269 269 271 275 280 280 280 280 280 280 280 280 280 277 274 271 269 269 268 269 269 270
279 277 276 275 273 272 272 272 273 273 273 272 272 272 271 271 271 273 273 272 271 270 270 270 269 269 268 268 268 267 266 266 265 265 265 265 264 264 265 266 266 266 266 265 266 266 267 268 269 270 271 272 273 273 273 273 273 274 274 274 273 273 272 271 272 272 273 272 272 271 270 270 270 269 269 268 268 268 269 269 268 269 269 271 275 280 280 280 280 280 280 280 280 280 277 275 273 269 268 268 269 269 269
277 276 275 274 273 273 273 272 272 273 272 272 272 271 271 271 271 273 272 271 270 269 269 269 268 268 268 268 267 267 266 266 265 265 264 263 263 263 264 265 266 266 265 265 265 266 267 268 269 270 271 272 273 273 273 274 274 273 274 274 273 273 271 271 271 272 272 272 271 271 270 270 269 269 270 270 270 270 269 269 269 269 268 271 276 279 280 280 280 280 280 280 280 279 276 274 271 268 268 268 269 269 269
275 274 274 274 274 274 274 273 273 273 273 273 273 271 271 271 271 271 270 269 269 269 269 269 269 268 268 267 267 266 266 266 266 265 264 263 263 263 263 265 266 266 265 265 265 266 267 268 269 270 270 271 272 273 273 273 273 273 273 272 272 272 271 270 270 271 271 271 271 270 270 269 269 270 269 268 268 268 268 269 269 268 267 271 277 279 279 280 280 280 280 280 279 278 275 272 269 269 268 268 268 269 270
Wind_Speed
15 15 16 16 16 16 16 15 15 15 15 14 14 15 16 15 15 15 15 15 15 15 14 14 15 14 14 13 11 10 9 8 8 7 7 6 5 5 5 5 5 5 5 5 6 6 6 6 7 7 7 7 8 8 9 11 13 14 13 14 14 12 14 14 14 15 16 15 13 11 9 7 6 5 5 4 3 3 3 2 2 2 2 2 2 3 2 3 3 3 3 3 3 3 3 2 2 2 3 3 3 2 2
14 15 15 16 16 16 15 15 15 15 15 14 14 14 15 15 15 15 15 15 15 15 15 16 16 14 14 13 12 10 9 8 8 7 7 6 5 4 4 4 4 5 5 5 5 5 6 6 6 6 7 7 7 8 9 12 14 14 14 13 13 13 15 15 14 13 15 14 12 11 10 8 7 6 6 6 5 5 4 4 3 3 3 3 3 3 2 2 2 2 3 4 3 2 2 3 3 2 2 2 2 2 1
14 14 15 16 16 16 16 16 16 16 15 15 15 15 15 15 15 14 14 14 15 14 16 16 15 14 14 13 12 11 11 9 8 7 6 5 4 3 3 3 3 4 4 4 5 5 7 7 7 7 7 7 7 8 9 12 14 15 14 13 13 15 15 15 13 12 14 13 12 11 10 8 7 6 6 6 6 6 6 5 4 4 4 4 5 5 5 4 4 2 1 3 3 2 1 1 2 2 2 2 2 2 1
14 14 15 16 16 16 16 16 16 17 16 15 15 15 14 14 14 13 13 13 14 14 15 16 15 14 14 13 13 12 12 11 9 7 6 5 5 4 3 2 3 4 4 4 4 5 6 6 6 6 6 7 7 8 9 11 13 14 14 13 14 15 16 14 13 14 14 13 12 11 10 9 7 7 7 7 7 6 6 6 5 4 6 6 7 7 8 8 6 4 4 2 2 3 2 1 0 1 2 2 2 3 2
13 14 14 15 16 16 16 16 16 16 15 14 13 13 13 12 12 11 13 13 14 14 15 15 15 14 14 13 12 11 12 12 11 7 6 6 5 4 2 2 3 4 4 4 3 4 4 5 5 5 6 7 7 8 8 9 10 13 14 14 15 16 15 14 13 14 15 14 12 10 10 10 9 8 7 7 7 6 7 7 6 5 5 6 7 7 9 8 6 5 6 5 2 1 2 2 1 1 1 2 2 4 4
13 13 13 14 15 15 15 15 15 15 14 12 11 12 12 12 12 12 13 13 14 14 15 15 14 14 14 13 12 11 11 13 13 9 8 7 6 3 3 3 4 5 4 4 4 4 5 5 5 5 5 7 8 8 8 9 10 12 14 14 15 16 16 14 12 14 16 15 13 10 11 11 11 9 8 7 7 6 7 7 7 6 6 6 6 7 7 7 6 6 5 5 4 3 0 2 2 2 1 2 2 4 4
12 13 13 14 14 15 15 15 15 14 13 12 11 12 12 12 13 14 13 13 13 14 15 15 14 14 14 13 12 11 11 14 15 12 11 10 8 7 6 5 5 4 4 4 4 4 5 6 6 6 7 7 8 9 9 9 9 10 12 13 14 16 16 15 13 14 15 15 13 10 12 12 12 12 9 7 7 7 7 8 8 8 7 6 7 7 9 8 7 7 6 6 5 4 3 1 2 3 2 2 2 3 3
13 14 14 14 15 15 15 14 13 12 12 12 11 11 12 13 13 14 13 12 13 14 15 15 15 14 14 13 13 12 12 14 15 13 11 10 9 8 7 5 4 4 4 4 4 5 6 7 7 7 7 7 8 9 9 9 8 8 9 11 14 16 16 15 14 14 15 15 14 11 12 13 13 12 10 8 7 7 8 8 8 8 7 7 7 7 9 9 8 7 7 7 6 5 5 4 2 2 3 3 3 3 3
14 14 15 15 14 14 14 14 14 12 12 12 12 12 12 13 13 13 12 12 13 14 14 14 14 14 13 12 12 12 13 14 14 12 10 9 8 6 6 5 4 4 4 4 4 5 6 6 7 8 7 7 7 8 8 8 8 7 8 9 12 15 15 15 14 13 15 15 15 13 12 13 13 12 12 11 9 8 8 8 8 8 7 7 7 7 7 7 8 8 8 8 8 7 6 6 5 2 3 4 4 3 3
13 14 13 13 13 13 14 14 14 14 13 13 13 13 12 12 12 12 12 13 13 13 14 14 14 14 12 11 11 12 12 13 13 12 9 8 7 7 6 6 5 5 5 5 5 5 6 6 6 7 7 7 7 7 7 7 7 7 7 8 11 13 14 14 14 13 14 15 15 14 12 12 13 14 13 13 12 9 8 8 9 8 8 7 7 6 6 6 7 9 9 9 8 8 6 6 7 7 3 3 5 5 4
11 12 12 12 12 12 12 13 13 13 13 13 13 13 11 11 10 11 12 12 12 13 13 13 14 13 12 11 10 12 11 12 13 12 9 8 7 7 7 7 7 6 6 6 6 5 5 5 5 6 6 6 6 6 6 6 6 6 6 7 8 11 13 14 13 13 14 14 14 14 13 12 12 13 13 13 13 11 9 9 8 8 8 7 7 7 7 7 7 8 9 9 8 8 7 6 6 7 5 3 4 6 5
10 11 11 10 10 10 11 11 12 12 12 13 13 11 10 10 10 11 12 12 12 12 12 12 13 12 12 11 10 11 11 12 12 12 9 7 7 7 8 9 8 8 7 7 6 6 5 5 5 5 5 5 5 6 6 5 5 6 6 6 7 9 12 13 12 11 13 13 13 14 14 13 12 13 13 13 13 12 10 9 9 8 8 8 7 7 8 8 7 7 7 8 8 9 8 7 6 6 6 5 4 6 6
8 9 9 9 9 10 10 11 11 11 12 13 12 11 10 10 11 12 12 12 12 12 12 12 12 12 12 11 10 9 10 11 11 11 9 8 7 7 8 9 9 9 9 8 7 6 6 6 6 6 6 5 5 5 5 6 6 6 6 6 6 7 9 11 11 10 12 13 14 14 14 14 13 12 13 13 12 11 10 10 9 8 8 8 8 8 8 7 7 6 6 7 9 10 9 8 7 6 7 7 6 6 6
8 8 8 9 9 10 10 11 11 11 12 12 11 10 10 10 11 12 12 12 12 11 11 11 11 11 12 12 11 10 11 10 10 10 11 9 8 7 8 9 9 10 9 8 7 7 7 7 6 7 6 5 5 5 6 6 6 6 6 6 6 6 7 9 10 11 11 13 13 13 15 15 14 12 12 12 12 11 10 10 9 9 9 8 8 7 7 7 7 7 7 8 9 10 10 9 7 7 7 7 7 5 6
8 8 8 9 9 9 9 10 10 10 10 10 10 10 10 10 10 11 11 11 11 10 10 10 10 11 11 12 12 11 12 12 11 10 11 10 9 9 9 8 8 8 8 8 7 8 8 7 6 6 6 6 6 5 6 6 6 6 6 6 6 6 7 7 9 11 12 13 14 13 15 15 14 13 12 13 13 12 11 10 10 9 9 8 7 7 7 8 9 10 9 9 10 10 10 9 8 7 7 7 8 6 6
7 8 8 8 8 8 9 9 9 9 9 9 9 9 10 10 10 10 10 10 10 10 10 10 10 10 10 11 11 11 12 13 13 11 11 11 11 10 9 8 8 8 9 8 8 8 8 7 6 5 5 6 6 5 5 6 7 7 7 6 6 7 7 7 8 9 12 13 14 14 15 15 15 14 13 13 13 13 12 12 11 10 9 8 8 8 9 9 10 11 12 12 12 11 10 10 10 9 8 8 8 8 7
7 7 7 7 7 7 8 8 8 8 9 9 8 8 9 9 10 10 10 10 10 9 9 10 11 10 10 10 10 11 12 12 12 12 11 11 10 10 9 9 9 10 10 10 8 8 7 6 6 5 5 6 6 5 5 6 6 7 6 6 6 6 6 6 7 7 9 11 13 14 14 15 15 15 13 12 12 13 13 12 11 10 9 9 9 10 10 10 10 10 11 12 12 12 11 11 11 10 8 7 7 8 7
6 7 7 6 7 7 7 7 8 9 9 8 7 7 9 9 10 10 9 9 9 10 9 10 10 10 9 9 9 10 11 11 11 12 12 11 10 10 9 9 9 10 11 10 9 9 8 7 6 6 6 6 6 6 5 6 6 6 6 6 6 6 6 6 7 7 7 9 11 13 13 13 13 13 12 12 12 12 11 10 10 10 9 9 10 10 10 9 8 8 9 10 10 11 11 11 12 11 9 7 7 8 8
6 7 7 7 7 7 7 7 8 9 8 8 7 8 9 9 9 9 9 9 9 9 9 9 9 9 8 8 8 9 10 11 11 12 11 11 11 11 9 9 9 9 10 10 10 9 9 8 8 7 7 7 7 7 6 6 6 6 6 6 5 5 5 6 6 6 7 8 9 12 12 12 12 11 11 11 12 12 10 9 9 10 9 9 9 8 8 7 7 7 7 8 8 9 10 10 11 11 9 8 7 8 8
7 8 8 7 7 7 7 8 8 9 8 7 7 9 9 9 9 9 8 8 8 8 8 9 9 8 8 8 8 8 9 10 10 11 11 11 12 11 10 9 9 9 9 9 9 9 8 8 8 8 8 8 7 7 7 7 7 6 6 5 5 5 5 6 6 6 7 7 8 9 11 11 11 9 10 11 12 11 10 9 9 9 9 8 8 7 7 7 7 7 7 7 7 8 8 8 9 10 9 9 8 7 7
9 9 8 8 8 8 8 9 8 8 8 7 7 8 9 9 9 8 8 8 7 8 8 8 8 9 8 8 7 7 8 9 9 10 11 11 12 11 10 10 9 9 8 8 7 8 7 8 8 7 7 7 7 6 6 6 6 6 6 5 5 5 5 5 6 6 7 7 8 9 11 11 10 9 10 11 11 10 9 9 9 9 9 9 9 8 8 9 9 8 8 8 8 9 9 8 8 9 9 9 9 7 7
9 9 9 9 9 9 9 9 8 8 8 8 8 8 8 9 9 8 8 7 7 7 7 8 8 8 8 8 7 7 7 8 8 9 10 10 11 11 10 9 8 8 7 6 6 6 6 6 6 6 6 6 6 6 6 6 6 6 6 6 6 6 6 6 6 7 7 7 8 9 11 11 10 9 10 10 10 10 9 9 9 10 10 11 10 9 10 10 10 9 8 8 9 10 9 9 10 10 9 8 8 8 7
8 8 8 8 9 9 8 8 8 8 7 7 7 7 8 8 8 9 8 7 6 6 7 7 7 7 7 7 7 7 7 7 7 7 8 9 9 8 8 7 7 6 6 5 5 4 5 5 4 4 4 4 5 5 5 5 5 5 6 6 6 6 6 6 7 7 7 7 8 8 10 10 9 9 10 11 11 11 11 11 11 12 12 12 11 11 11 11 11 10 8 8 8 9 9 10 11 10 8 8 9 9 9
8 7 7 8 8 8 7 7 6 6 6 6 6 7 7 8 8 8 8 7 7 7 7 6 6 6 6 6 6 7 8 8 7 6 6 6 6 6 6 6 6 5 5 4 4 4 4 3 3 3 3 3 3 3 3 4 4 5 5 5 5 5 6 6 7 7 7 7 7 7 8 8 9 10 11 12 12 12 13 13 14 14 14 13 12 11 11 11 11 11 9 8 8 9 9 9 9 7 7 8 9 8 9
6 6 6 6 6 6 6 6 6 6 5 5 6 6 7 7 7 8 8 8 8 8 7 7 6 6 5 5 5 6 7 7 7 6 5 5 5 5 6 6 6 6 5 5 4 4 4 4 3 3 3 3 3 3 3 3 4 4 4 4 5 5 5 5 6 6 6 6 6 7 8 9 10 11 12 12 13 13 13 14 15 15 14 13 13 12 12 12 12 11 10 8 8 8 9 8 7 7 7 8 9 8 8
5 4 4 4 4 5 5 5 5 5 5 5 5 6 6 6 6 7 7 8 8 8 8 7 7 6 6 5 5 5 6 7 7 6 5 5 4 4 5 6 6 6 7 6 6 5 5 5 5 5 5 4 4 4 4 4 4 4 5 5 4 4 5 5 5 5 5 5 6 8 9 9 10 11 12 13 13 14 14 14 14 14 14 14 14 13 12 12 11 11 10 9 8 8 8 8 8 7 8 9 9 9 8
4 4 4 4 4 4 5 5 5 6 5 5 5 5 5 6 6 7 7 7 8 8 8 7 7 6 6 6 5 5 5 6 6 6 6 5 5 4 5 6 6 7 7 7 7 6 6 5 5 5 6 6 5 5 4 5 5 5 5 5 5 6 5 5 5 5 6 7 8 9 9 9 10 11 12 12 13 14 14 14 14 13 14 14 14 14 13 11 10 11 10 9 8 8 8 8 9 8 9 9 10 11 9
4 4 4 4 4 4 4 5 5 6 5 5 5 5 5 6 6 6 6 7 7 7 7 7 7 6 6 6 6 5 5 5 6 5 5 5 5 5 5 6 6 6 6 7 7 7 6 6 6 5 6 6 6 5 4 4 5 5 5 5 6 6 6 6 6 6 7 8 9 10 10 10 10 11 11 11 12 12 13 13 13 13 13 14 14 13 13 11 11 11 10 9 8 8 9 9 9 9 9 9 9 10 8
4 4 4 4 4 4 5 5 5 5 5 5 5 5 5 5 5 6 6 6 6 6 6 6 7 7 7 7 7 6 6 5 5 5 5 5 5 5 5 5 5 6 6 6 6 6 7 7 6 5 6 7 6 5 5 4 4 4 5 5 5 6 6 6 6 6 7 8 9 10 10 11 11 11 11 11 11 11 12 13 13 13 13 13 13 13 13 12 12 11 9 8 9 10 10 10 9 9 9 9 8 8 7
3 4 4 4 4 5 5 5 5 4 4 4 4 4 4 4 4 5 5 6 5 5 4 5 6 7 7 6 7 7 6 6 5 5 5 5 6 6 5 5 5 6 6 6 6 6 6 6 6 6 6 6 6 5 5 5 4 4 4 4 5 5 6 6 7 7 7 7 8 9 10 11 11 11 11 11 11 11 11 12 12 13 13 12 12 12 12 12 12 11 8 8 8 9 9 9 10 10 9 8 7 7 7
4 4 4 4 5 5 5 5 5 5 4 4 4 4 4 4 4 4 5 5 5 5 4 3 4 6 6 6 6 6 6 6 5 5 5 5 6 5 5 5 6 5 5 6 6 5 6 5 5 5 6 6 5 5 5 5 5 4 4 4 5 5 6 6 7 7 7 7 8 9 9 10 10 10 10 10 10 11 10 11 12 12 13 12 12 12 12 12 11 10 8 7 8 8 9 10 11 11 10 9 8 7 7
4 5 5 5 5 5 5 5 5 5 4 4 4 4 3 3 4 4 4 5 5 5 4 3 3 4 4 5 6 6 5 5 5 5 5 5 5 5 5 5 5 5 6 6 6 6 6 5 5 5 5 5 5 5 6 6 5 5 4 4 5 5 5 5 6 6 7 7 7 8 8 9 9 9 9 10 10 10 10 10 11 11 12 12 12 12 12 12 11 10 8 7 7 7 8 9 11 11 10 9 9 8 8
5 5 5 5 5 5 5 5 5 5 5 4 4 4 3 3 3 3 4 4 5 5 5 4 4 3 4 5 6 6 7 7 6 6 6 6 6 5 5 5 5 6 6 6 6 6 6 6 5 5 5 5 5 5 6 6 6 5 4 4 4 4 4 5 5 5 6 7 7 7 8 8 8 9 9 9 9 9 10 10 10 10 11 11 12 12 11 11 11 9 8 8 8 7 7 9 10 12 11 10 9 9 8
5 5 5 5 5 5 5 5 5 5 5 4 4 3 3 3 3 3 3 4 4 4 4 4 4 4 5 6 6 7 8 8 7 7 7 6 6 6 7 7 6 7 7 7 7 7 6 6 6 5 5 5 5 5 5 6 6 5 5 4 4 4 4 4 5 5 6 7 7 7 7 7 7 8 8 9 9 9 9 9 9 9 9 10 10 10 11 11 11 9 8 8 8 8 8 9 10 12 11 10 9 8 7
5 5 5 5 5 6 5 5 5 6 5 5 4 3 3 2 2 2 2 3 3 4 4 4 4 4 5 6 7 7 7 7 7 8 7 6 6 7 8 8 7 7 7 7 7 7 7 7 6 6 5 5 5 5 6 6 6 6 5 4 4 4 4 4 4 5 5 6 6 7 6 6 6 6 7 8 8 8 8 9 8 8 8 8 8 9 9 10 10 9 8 8 9 8 9 10 11 11 11 10 9 7 7
5 5 5 5 6 6 6 6 6 5 5 4 3 2 2 2 2 2 2 2 3 4 4 4 4 4 4 5 6 7 7 7 7 8 7 7 7 7 8 8 8 8 8 7 7 7 7 7 6 6 6 6 6 6 6 6 6 7 6 5 4 3 4 5 5 5 5 5 5 5 5 5 5 5 6 6 7 7 7 8 8 8 8 8 8 8 8 8 8 8 8 9 9 8 9 9 10 10 10 9 8 7 7
5 5 5 5 5 6 6 5 5 4 4 3 3 2 1 2 2 1 2 2 3 4 4 4 4 5 5 6 6 6 6 7 7 7 7 6 6 7 7 8 7 7 7 7 7 7 7 6 6 6 5 5 6 6 6 6 6 6 6 5 4 4 5 5 5 4 5 5 5 4 4 4 4 5 5 6 6 6 7 7 7 7 7 7 7 8 8 7 7 8 8 8 9 8 7 7 8 9 8 8 8 8 7
5 6 6 6 6 6 5 5 4 4 3 3 2 2 2 1 1 1 1 2 2 3 4 4 5 5 5 5 5 5 5 6 6 6 6 6 6 7 7 7 7 6 7 7 6 7 6 6 6 5 5 5 6 6 6 6 5 5 6 5 5 5 4 4 4 4 4 4 4 4 4 4 4 4 5 6 6 6 6 7 7 7 7 7 7 7 7 7 8 8 8 8 8 8 7 7 7 8 8 7 7 8 8
5 6 6 6 6 6 5 5 4 3 3 2 2 2 2 1 1 1 1 1 2 2 3 4 4 5 5 5 4 4 5 5 5 6 6 6 6 7 7 7 6 6 6 6 6 6 6 6 5 5 5 5 5 6 5 5 5 5 5 5 5 4 3 3 3 3 4 4 4 5 4 4 4 4 6 7 7 7 7 7 7 6 7 7 7 7 6 7 8 8 8 7 7 7 7 7 7 7 7 7 7 8 8
5 5 6 6 6 5 5 4 3 3 2 2 2 2 2 2 1 1 1 1 2 2 3 4 4 4 4 4 4 4 4 5 5 6 6 6 6 7 6 6 6 6 6 6 6 6 6 5 5 5 4 4 5 5 5 5 4 4 5 4 4 4 3 3 3 3 3 4 4 5 5 4 4 4 6 7 8 7 7 7 6 6 6 6 7 7 6 6 7 8 7 7 7 7 7 6 6 6 6 6 7 7 7
5 5 5 5 5 4 4 3 3 2 1 1 1 2 2 2 2 2 2 2 2 2 3 3 4 4 4 3 3 4 4 4 5 5 6 6 6 6 6 6 6 6 6 6 6 6 6 5 5 4 4 4 4 4 4 4 4 4 4 4 4 4 3 3 2 2 3 3 3 4 5 5 4 4 6 7 7 7 7 7 6 6 6 6 6 7 6 6 6 6 6 6 6 6 6 6 6 6 5 5 6 6 6
4 4 4 5 5 5 4 3 2 2 2 1 1 1 2 2 2 2 2 2 2 2 3 3 3 3 3 3 3 3 3 4 5 5 5 6 6 6 6 6 6 6 6 6 7 7 7 6 6 5 4 4 4 5 5 5 4 4 4 4 4 4 3 3 2 2 2 2 3 3 4 4 4 4 5 6 7 7 7 6 6 6 5 5 6 6 6 5 5 5 5 5 5 5 5 5 6 5 5 5 5 5 6
4 4 5 5 5 4 3 2 2 2 2 1 1 1 1 2 2 2 2 2 2 2 2 2 2 2 3 3 3 3 3 4 4 5 5 5 5 6 6 6 6 6 6 6 6 6 7 7 6 6 5 5 5 5 5 5 5 5 5 5 4 4 3 3 2 2 2 2 2 2 3 3 4 5 5 6 6 6 6 6 6 5 5 5 5 5 4 5 5 6 5 5 5 5 5 5 5 5 5 5 5 5 6
4 4 5 5 5 4 3 2 2 3 2 2 2 2 1 1 2 1 2 2 2 2 2 2 2 2 2 3 3 3 3 4 4 5 5 5 5 5 5 5 5 5 5 5 5 6 6 6 6 6 5 5 4 4 5 5 5 5 5 5 5 5 4 3 2 1 1 1 1 2 2 3 4 4 5 5 5 5 5 5 5 4 4 4 4 4 4 4 5 6 5 5 5 4 4 5 5 5 5 5 6 6 6
4 4 4 5 5 4 3 3 2 3 2 2 2 2 2 2 1 1 1 2 2 2 2 2 2 2 2 2 2 2 3 3 4 4 4 4 4 5 5 5 4 4 4 4 4 4 5 5 5 5 4 4 4 4 4 5 5 6 5 5 5 5 5 3 2 1 1 1 0 1 3 3 4 4 4 4 4 5 5 5 4 4 4 4 4 4 4 4 5 5 5 5 5 5 5 6 6 6 6 6 6 6 5
5 4 4 5 5 4 3 2 2 2 2 2 2 2 1 1 1 1 1 1 1 2 1 1 1 1 1 2 2 2 2 3 4 4 4 4 4 5 5 4 4 4 4 4 4 4 4 4 4 4 3 3 3 4 4 5 5 5 5 5 5 5 5 3 2 1 1 1 1 1 3 4 4 3 4 4 4 5 5 5 5 4 4 3 3 3 3 3 4 4 5 5 5 5 5 6 6 6 6 7 7 6 5
6 5 5 5 5 4 3 2 2 2 2 2 2 1 1 1 0 1 1 1 1 1 1 0 1 1 1 2 2 1 2 3 4 4 4 4 4 4 4 4 4 3 3 3 3 4 4 4 4 3 3 3 3 4 4 4 4 5 5 5 5 5 4 3 2 2 2 2 1 1 4 5 5 3 3 3 3 4 4 5 5 4 4 3 3 2 2 2 2 3 4 5 5 4 5 5 6 7 7 7 6 6 6
6 5 5 5 5 5 4 3 3 3 3 2 2 2 1 1 0 1 0 0 0 0 1 1 1 1 1 1 1 1 2 3 3 3 3 4 4 4 4 4 4 3 3 3 3 4 4 4 4 3 3 3 3 4 4 4 4 4 5 5 5 5 4 4 3 2 2 1 1 3 5 6 5 4 3 3 4 4 4 5 5 5 4 4 3 1 1 2 2 3 4 4 4 4 4 5 6 6 6 6 6 6 7
7 6 6 6 5 5 4 3 3 3 3 3 3 3 2 1 1 0 1 0 0 0 1 1 1 1 1 0 0 1 2 3 3 3 3 3 4 4 3 3 4 4 4 4 4 4 5 5 4 3 3 3 4 4 4 4 4 5 5 5 5 6 6 5 4 3 2 2 3 5 6 6 5 4 4 4 4 5 5 5 5 4 4 3 3 2 3 4 4 3 3 3 3 3 3 4 5 5 5 5 6 6 7
8 8 8 7 6 4 3 3 3 3 4 4 4 3 3 2 2 1 1 1 1 0 1 1 1 1 1 0 0 1 2 3 3 3 3 3 3 3 3 3 4 5 5 5 5 5 5 5 5 4 4 3 4 4 4 4 4 5 5 5 5 6 6 6 5 4 3 3 5 7 7 6 5 5 5 4 4 5 4 4 4 4 4 3 3 3 7 8 8 6 4 3 2 2 3 3 4 5 5 5 5 6 6
9 9 8 7 6 4 3 3 4 4 5 5 5 4 4 3 3 2 2 2 1 1 1 1 1 0 1 1 0 1 2 2 2 3 3 3 3 3 3 4 4 5 5 6 6 6 5 5 5 5 4 4 4 4 4 5 5 5 5 5 5 6 6 5 5 5 4 5 6 7 6 6 5 4 4 4 4 4 4 4 4 4 3 3 3 5 7 8 8 8 7 5 3 2 2 3 3 4 4 5 5 5 6
9 8 7 6 5 4 4 4 4 5 6 6 6 5 4 4 3 3 2 2 1 1 1 1 1 1 1 1 0 1 2 3 2 2 3 2 2 2 3 3 4 5 5 6 6 6 6 6 6 5 5 5 5 5 5 5 5 5 5 6 6 6 5 4 4 5 5 6 6 5 6 5 4 3 4 4 4 4 4 4 4 3 3 3 4 6 7 8 8 9 9 7 4 3 2 2 3 3 4 4 4 5 5
8 8 7 6 5 5 5 5 5 5 6 6 6 5 5 4 3 3 2 1 1 1 1 1 1 1 1 1 0 1 2 3 3 2 2 2 2 2 2 3 4 4 5 5 5 6 6 6 6 6 6 6 5 5 6 6 6 6 6 6 6 5 4 4 4 4 4 4 4 4 5 4 4 3 3 3 3 4 3 3 3 3 3 4 5 7 8 8 8 8 9 8 6 3 2 1 2 2 3 3 3 4 4
9 9 8 7 7 7 7 6 5 5 5 6 5 5 5 4 4 3 2 1 1 2 2 2 2 2 2 1 1 2 2 3 2 2 2 1 1 2 3 3 4 4 4 5 5 6 6 6 6 6 6 6 5 5 5 6 6 6 7 7 6 5 4 4 4 2 3 3 4 4 3 3 3 3 2 3 3 4 3 3 2 2 3 4 6 8 8 8 8 8 9 9 8 5 2 1 1 1 2 2 3 3 4
9 9 9 8 8 8 7 6 5 5 6 6 6 5 5 5 4 3 2 2 2 2 2 2 2 2 1 1 2 3 2 2 2 2 1 1 1 2 3 3 3 3 4 4 5 6 6 6 6 6 6 6 6 5 6 6 7 7 7 7 6 5 4 3 2 1 3 3 4 3 3 3 2 2 2 2 3 3 3 2 2 2 3 4 6 7 8 8 8 8 9 9 8 7 3 1 1 1 1 2 3 3 4
10 9 8 7 6 5 5 5 6 6 6 6 6 5 4 4 4 4 3 3 3 3 2 2 1 1 1 2 2 2 2 2 2 2 1 1 1 2 2 3 3 3 3 4 4 5 6 6 6 6 6 6 6 6 6 7 7 7 7 6 5 4 2 2 1 2 3 4 4 3 2 2 2 1 1 2 2 2 2 1 1 2 2 4 5 7 7 8 8 9 9 9 9 8 4 2 1 1 1 2 3 3 5
8 6 5 4 3 3 3 4 4 5 5 4 3 3 2 2 3 3 3 3 2 2 1 1 1 1 1 2 2 2 2 1 1 2 1 1 1 2 2 2 3 3 3 3 4 5 5 6 6 6 6 6 6 7 7 7 7 7 6 6 5 4 3 2 2 3 3 3 3 2 2 2 2 1 1 1 1 2 1 1 1 2 2 3 5 7 7 8 8 9 9 9 9 8 4 2 1 1 1 2 3 4 5
5 4 4 4 4 3 3 3 3 3 3 3 2 2 2 2 2 2 2 1 1 1 1 1 1 1 2 2 2 2 2 1 1 1 1 1 1 2 2 3 3 3 3 3 3 4 5 5 6 6 6 6 6 7 7 7 7 7 6 6 6 5 3 2 1 2 3 3 2 2 1 1 1 1 1 1 1 2 2 1 1 2 3 4 5 7 8 8 9 9 10 10 10 9 5 3 2 1 1 2 3 3 4
5 5 5 6 5 5 5 4 3 3 3 3 2 3 3 3 2 1 1 1 1 1 1 1 2 2 2 2 2 2 2 2 1 1 1 1 1 2 3 3 3 2 2 2 3 3 4 5 5 6 6 6 6 6 6 7 6 6 6 6 6 5 3 1 0 1 1 2 2 2 2 2 1 1 1 1 1 1 1 1 1 2 3 4 5 7 8 9 9 10 11 11 10 9 5 2 2 2 2 3 3 4 5
Wind_Direction
37 35 33 31 29 26 24 22 21 20 20 19 18 16 12 10 9 8 8 8 7 5 2 1 360 359 356 353 351 350 348 346 345 346 342 346 354 1 5 7 9 9 13 14 14 13 14 14 15 16 17 17 17 19 18 13 10 9 6 4 2 359 356 355 354 355 354 355 356 359 1 6 10 10 7 12 25 37 39 47 66 90 98 106 115 127 130 140 154 170 180 184 190 204 207 195 151 114 96 88 81 75 63
37 35 33 30 28 26 24 21 19 18 17 18 19 17 13 10 9 7 7 8 7 5 2 2 1 358 355 353 352 352 349 347 345 344 339 339 344 356 1 7 13 14 15 15 14 15 16 17 17 17 16 15 16 19 18 15 13 11 9 7 5 0 357 357 358 358 357 357 358 359 1 5 11 14 13 16 20 24 24 30 42 58 65 65 61 55 62 82 111 163 182 176 167 171 203 208 199 178 139 109 90 83 76
34 34 32 30 27 25 23 21 19 17 15 16 16 14 12 10 8 6 6 7 7 5 4 3 1 357 355 354 353 353 350 345 341 338 333 331 333 343 350 1 10 14 14 15 17 20 19 19 18 17 14 13 13 16 17 17 15 13 12 10 6 1 359 359 1 2 1 0 360 359 0 4 11 18 21 23 24 24 23 29 41 57 65 65 60 48 41 40 41 44 137 154 149 136 166 223 219 195 152 128 110 101 99
29 30 30 28 27 24 22 21 19 18 17 15 12 11 11 9 7 3 4 6 7 6 5 3 360 357 356 355 353 351 348 343 338 332 327 321 318 319 335 358 15 19 16 18 21 23 23 22 21 17 13 11 11 14 17 18 17 15 13 10 7 3 2 2 3 4 3 2 2 2 2 4 10 20 25 27 27 26 24 27 35 49 61 61 56 47 39 34 28 21 21 41 131 144 153 175 216 127 120 114 97 73 70
27 27 28 27 26 24 22 21 19 18 18 15 12 10 9 7 5 3 5 6 7 7 5 2 359 358 357 356 353 349 345 343 340 332 326 316 306 300 323 2 24 26 21 20 21 25 28 29 27 23 17 13 12 15 18 19 18 16 13 11 9 6 5 4 4 6 6 5 4 4 4 6 10 19 25 27 27 26 27 27 29 38 51 54 52 49 41 34 24 15 13 10 10 127 157 160 150 80 89 84 67 54 53
25 25 26 26 25 23 22 20 19 17 15 13 11 9 8 7 6 6 6 7 7 6 3 1 359 358 357 355 352 347 344 344 343 336 328 320 314 321 3 28 34 33 29 26 23 24 26 27 27 26 21 16 15 16 19 19 18 16 14 12 10 8 7 7 7 7 8 8 8 7 7 8 11 17 22 26 27 28 30 29 28 29 41 48 51 51 46 38 27 15 13 9 5 356 24 154 148 127 94 75 61 47 52
24 23 24 24 24 22 21 19 17 14 12 11 10 8 7 7 7 8 7 6 6 5 3 0 358 357 356 355 353 349 346 346 345 340 334 335 345 9 25 33 35 33 36 37 36 33 27 25 25 25 21 18 15 15 18 18 16 13 13 12 10 8 9 9 9 8 10 11 11 9 11 12 14 18 20 23 27 31 33 34 33 33 37 42 46 49 48 43 34 21 16 11 6 2 355 16 137 137 121 103 80 57 55
23 21 21 22 22 21 19 17 14 11 11 11 9 6 6 7 8 7 6 5 5 4 2 0 358 357 357 356 354 351 349 347 346 343 343 349 358 12 20 26 29 31 37 43 45 43 35 31 27 22 18 16 14 13 15 16 14 12 12 11 10 9 10 10 11 10 12 14 14 12 14 15 17 19 20 21 23 29 35 39 41 38 40 42 44 46 47 45 39 31 23 18 15 16 8 3 12 133 126 117 105 92 66
21 19 18 18 19 19 16 14 12 10 11 10 9 7 7 7 8 7 6 5 4 4 2 0 359 357 357 356 355 353 351 350 349 347 351 355 360 5 8 13 20 26 30 32 33 35 32 29 26 22 16 11 9 8 11 13 13 12 10 8 8 9 11 12 12 12 14 15 16 16 17 18 19 21 22 22 23 24 32 38 42 42 43 43 44 42 42 42 40 38 31 27 26 27 23 14 8 19 100 112 109 102 78
21 20 18 16 16 16 14 12 11 10 9 8 7 6 6 6 7 8 7 6 4 4 3 1 359 357 357 357 357 355 354 354 353 351 357 3 8 9 8 10 17 24 26 27 27 28 29 29 27 23 15 8 3 5 8 9 9 7 5 6 8 11 12 13 13 14 15 16 18 19 19 20 21 23 24 24 24 24 28 33 38 42 43 43 42 41 39 37 35 35 32 29 28 28 30 24 18 12 34 88 107 105 94
23 20 18 16 14 13 12 11 10 8 7 7 6 4 2 4 8 9 8 7 5 4 3 0 358 356 358 359 359 357 356 356 356 356 3 10 15 16 15 16 19 24 26 27 27 30 32 32 31 28 18 9 5 6 9 8 5 2 2 5 9 11 13 13 14 15 16 18 19 21 21 21 23 23 25 26 26 26 27 30 33 38 39 40 41 39 35 32 30 30 28 25 24 27 34 35 28 17 13 42 93 101 100
23 21 17 14 11 10 10 9 8 6 5 5 5 1 360 4 9 12 10 9 7 5 3 1 358 357 359 1 1 359 359 359 360 1 6 14 19 21 21 22 24 25 28 28 27 29 32 31 30 29 24 17 11 10 10 8 5 4 4 6 9 11 13 14 14 16 16 18 20 22 23 23 24 24 24 25 27 29 29 31 33 35 35 37 39 38 35 33 30 30 28 24 24 31 39 41 37 26 22 36 66 81 78
22 19 16 12 10 8 8 7 6 6 5 4 3 1 3 8 12 13 13 11 9 6 4 2 360 358 1 4 5 2 1 2 4 5 9 16 21 23 22 24 25 25 28 28 28 28 28 25 22 22 23 21 17 15 13 12 10 9 7 8 10 12 13 15 16 16 16 18 20 22 24 25 25 25 25 25 26 28 30 32 33 33 33 35 37 38 36 33 32 32 30 29 30 35 40 42 42 37 36 42 55 68 65
18 17 14 12 10 8 6 6 6 7 5 3 3 4 8 11 14 14 15 13 10 6 5 3 2 359 2 5 6 4 4 6 9 11 13 18 23 24 24 26 27 26 28 28 27 25 24 21 17 17 19 19 18 17 17 17 16 13 11 11 13 14 14 16 17 18 18 18 19 21 24 26 27 27 24 24 25 28 30 31 32 33 34 34 35 36 35 34 34 35 33 32 33 36 38 40 41 39 41 45 50 60 64
16 13 12 10 8 6 4 4 3 3 2 3 4 8 11 13 14 15 15 13 10 7 5 5 4 2 3 5 7 8 9 12 15 15 15 19 25 28 28 29 29 29 28 26 23 21 21 18 15 13 15 17 17 15 17 18 19 17 15 16 16 16 16 17 18 20 21 20 19 20 22 24 26 27 25 25 26 28 30 31 32 33 33 32 32 32 32 34 36 38 38 36 35 35 36 36 36 36 39 42 45 50 57
14 11 9 7 6 5 4 2 360 359 1 3 5 8 11 14 15 15 15 13 10 7 6 6 7 6 6 7 8 10 11 15 17 19 18 20 24 29 32 33 33 32 30 26 22 19 18 15 10 7 12 15 15 13 13 16 18 18 18 18 18 18 17 17 18 20 21 21 20 20 21 23 24 24 24 25 26 28 29 30 31 32 32 31 29 26 27 31 35 37 39 40 39 37 36 35 34 34 37 40 43 46 51
13 10 7 5 3 2 2 1 0 1 2 1 1 4 10 13 14 14 14 13 11 8 7 8 9 10 10 10 11 12 13 15 18 19 20 20 21 25 31 34 34 33 31 28 23 17 13 9 5 6 12 15 16 12 10 13 16 17 17 18 19 19 17 16 17 19 21 21 21 20 20 21 21 22 23 24 25 26 28 29 30 32 31 30 27 25 26 28 31 34 38 39 40 39 38 36 34 35 35 37 40 44 47
13 11 7 4 2 1 3 4 5 5 2 359 358 4 11 13 13 12 12 12 11 10 9 10 11 13 12 12 14 16 17 18 19 20 21 20 20 22 28 31 32 31 30 27 23 16 11 7 6 8 14 16 15 11 9 10 13 14 14 16 18 18 16 15 16 18 20 21 21 20 19 19 20 20 22 23 24 25 26 27 28 30 30 29 27 26 25 26 28 31 36 39 39 39 38 37 36 35 34 33 35 40 42
10 10 7 5 3 3 6 8 8 7 3 359 359 6 12 12 10 8 9 11 11 11 10 11 13 14 13 16 19 20 20 20 20 22 21 20 20 21 24 25 26 27 26 24 21 15 10 9 10 14 15 15 12 10 9 9 10 12 13 13 14 15 17 16 16 17 21 22 22 20 19 18 19 20 21 22 23 24 25 26 27 27 27 27 27 27 26 26 28 32 36 39 40 39 39 38 36 34 33 31 32 36 38
8 7 6 4 4 5 8 10 9 7 2 358 359 6 9 8 5 3 5 8 9 10 10 12 14 15 15 17 22 24 23 22 22 23 22 21 21 21 20 20 21 23 22 20 17 12 11 11 13 16 16 14 11 9 9 8 9 9 10 10 12 17 19 19 19 20 23 24 23 21 18 18 19 20 21 22 23 23 25 25 25 24 23 24 25 28 29 31 34 38 40 41 41 40 39 37 35 33 33 31 31 34 36
7 6 4 3 3 6 8 8 7 4 360 357 358 3 5 3 359 357 360 2 5 8 10 12 15 16 15 16 20 26 26 25 24 24 23 23 22 21 18 16 17 19 18 16 13 11 12 12 14 16 16 14 11 10 9 8 7 7 6 7 12 19 20 21 22 24 25 25 25 22 19 19 21 22 21 22 22 22 23 24 23 23 21 20 22 29 34 37 40 43 43 43 42 41 39 37 34 32 32 31 31 34 37
5 5 3 2 3 4 5 4 2 360 357 356 356 360 360 357 353 352 353 356 0 5 7 11 15 17 15 14 17 24 27 27 26 26 26 25 23 20 16 14 14 16 15 12 10 10 11 12 13 17 17 15 13 13 11 9 6 5 6 9 14 19 20 22 24 24 24 25 25 22 20 21 23 24 23 23 23 23 24 24 23 22 20 21 23 29 36 41 44 46 45 43 41 40 38 36 33 31 30 29 30 34 39
3 2 360 359 360 360 358 357 356 354 352 351 351 355 354 351 348 347 348 351 356 0 3 7 12 16 15 14 15 20 25 27 27 27 28 27 25 19 14 13 14 15 13 10 9 11 11 11 14 19 21 21 18 17 14 10 8 8 9 11 14 16 20 23 25 24 24 24 24 21 20 22 25 26 25 25 25 26 26 26 25 23 22 22 24 29 36 41 45 47 47 45 41 39 37 33 31 29 25 25 27 34 39
0 358 356 356 355 352 350 347 345 343 341 342 345 349 348 345 342 341 341 344 349 354 358 3 7 10 10 12 15 19 23 25 25 26 27 26 22 17 12 12 15 17 13 11 10 10 8 9 14 19 26 29 28 25 20 16 13 13 14 15 15 16 22 24 25 23 24 24 23 20 21 24 27 28 28 27 27 27 27 27 26 25 24 23 24 28 34 39 43 46 47 47 43 39 37 33 30 25 21 21 24 31 36
355 350 349 347 344 340 336 332 329 329 331 335 339 342 341 338 336 335 335 339 344 350 354 358 2 3 4 6 10 16 21 22 23 24 25 22 18 13 11 13 16 18 17 15 14 11 10 12 14 16 21 27 32 32 28 25 22 21 21 21 20 21 25 26 25 24 24 23 21 20 24 27 29 29 29 29 29 28 28 27 26 26 25 24 24 26 31 36 40 42 45 45 43 39 36 33 29 23 20 21 24 28 33
345 338 332 327 323 319 318 318 318 319 323 327 331 335 335 335 334 333 333 337 341 345 349 354 358 2 360 358 360 7 15 19 21 22 22 19 15 13 14 16 18 20 20 20 18 17 17 18 19 18 16 17 21 26 26 25 24 27 29 29 28 28 29 29 28 27 26 24 24 25 28 29 30 30 30 30 30 29 28 27 27 27 26 25 26 27 30 34 38 39 41 42 40 36 33 31 29 23 20 23 27 28 29
335 326 315 306 303 305 309 311 312 312 316 320 326 330 334 335 334 333 335 337 338 338 342 348 354 359 358 356 356 359 9 15 19 20 21 20 18 16 19 21 22 23 23 22 22 21 21 23 23 20 17 15 16 18 21 22 23 27 31 32 32 31 31 31 31 32 29 28 29 30 32 33 33 33 32 31 31 31 29 29 28 28 27 27 27 28 30 34 37 39 41 42 39 34 31 28 25 21 20 24 28 28 26
324 315 307 303 301 301 302 303 304 306 310 317 324 330 335 335 335 334 337 337 335 333 337 344 351 355 356 357 359 1 7 12 15 18 20 21 21 21 22 22 23 24 23 23 24 25 25 25 26 25 20 16 14 14 17 21 25 29 32 33 33 31 30 30 31 31 30 29 30 32 34 36 36 36 35 35 34 33 31 31 30 30 29 29 29 30 32 34 37 40 43 43 40 34 31 28 25 20 20 23 27 27 24
305 301 300 298 297 294 292 293 296 300 307 315 322 327 331 333 335 334 336 334 332 328 332 340 347 351 354 358 1 4 5 7 9 12 16 18 21 22 21 20 20 22 22 24 25 25 25 26 27 27 23 19 16 15 16 20 27 32 35 36 36 35 34 33 32 31 31 31 31 33 35 36 36 36 37 37 37 36 34 34 33 33 33 32 32 32 33 36 38 41 44 44 41 37 34 30 25 20 21 24 27 28 26
283 285 286 286 286 287 289 290 292 293 299 304 309 315 320 324 327 330 332 332 330 325 326 335 343 347 351 355 358 359 2 4 6 9 13 17 20 23 22 20 20 20 21 22 23 24 24 24 26 29 27 24 21 18 20 23 28 34 36 37 39 40 38 37 36 35 36 36 35 36 37 38 37 36 36 37 37 36 36 36 36 37 37 36 35 34 35 37 40 42 44 45 43 40 37 31 26 22 24 26 28 28 27
284 283 281 283 285 288 291 290 289 285 283 284 288 295 302 307 312 320 328 332 334 332 329 334 342 347 349 351 352 354 358 2 6 8 13 18 22 24 24 23 22 22 21 20 20 21 22 23 25 28 29 28 27 25 25 26 29 35 37 40 43 46 44 42 40 40 40 40 40 40 41 41 39 38 38 38 38 37 37 37 38 39 40 39 38 37 38 40 42 44 46 45 43 43 40 34 28 26 28 29 29 29 27
290 290 288 286 285 286 288 288 288 288 287 287 287 286 289 293 301 313 328 338 342 342 338 338 342 347 345 345 346 349 354 0 6 10 14 20 24 28 28 27 26 25 24 23 22 22 23 24 25 26 29 30 30 31 30 30 30 33 39 44 48 51 49 46 44 43 42 42 42 43 44 44 43 41 40 39 38 38 37 37 38 40 40 41 41 40 41 41 43 45 46 45 42 41 39 33 29 28 29 30 31 30 27
284 285 284 282 281 281 281 284 287 291 292 291 290 288 290 293 300 314 334 343 345 343 343 342 343 343 343 345 347 350 355 1 7 14 16 20 24 30 31 31 29 29 28 27 26 25 25 26 26 26 29 31 32 33 31 29 28 30 39 47 54 57 56 53 50 47 44 43 44 45 46 46 46 44 42 40 39 39 38 38 39 40 41 42 42 42 42 43 43 45 45 43 41 39 36 31 28 27 28 29 30 30 27
275 273 277 278 279 278 277 278 280 282 281 279 277 278 281 287 298 318 337 340 341 343 349 350 350 350 351 353 356 359 360 3 9 15 18 21 25 31 34 34 33 32 29 27 26 25 24 24 24 24 27 30 31 31 29 27 26 26 33 45 58 67 66 62 57 53 48 46 45 45 46 46 47 46 44 41 39 38 38 38 38 39 41 42 43 43 43 44 45 47 45 43 41 38 35 30 27 25 26 26 27 28 24
271 269 273 277 280 279 276 274 273 272 273 271 269 266 269 274 287 306 322 329 336 350 358 1 2 5 5 5 6 7 6 7 11 17 19 22 28 33 36 37 37 34 31 28 26 25 22 22 23 23 24 25 27 27 25 24 24 24 27 36 53 73 75 71 65 59 54 51 49 47 47 47 48 48 46 44 42 40 39 38 38 39 41 43 45 45 45 46 46 48 47 44 42 40 36 32 28 25 25 24 23 22 19
270 273 273 275 277 278 277 276 275 275 278 281 283 278 274 271 274 285 308 328 344 1 8 11 15 21 22 20 18 16 14 14 16 18 20 24 29 35 37 39 39 36 32 29 27 25 21 21 23 23 23 23 23 23 22 22 23 23 25 29 42 67 79 78 74 69 65 61 57 54 52 51 52 53 52 49 47 44 42 40 40 40 42 45 48 49 49 49 49 50 48 46 43 40 36 33 29 25 24 22 20 17 14
268 273 273 274 275 277 279 281 284 288 293 298 301 301 288 279 282 300 328 343 354 5 14 20 26 31 32 30 28 25 22 21 20 22 23 26 29 34 36 37 37 36 33 30 28 25 22 22 23 24 24 24 24 23 22 22 22 22 23 26 36 55 76 83 83 78 75 73 69 65 61 58 59 60 60 56 53 49 46 44 42 41 42 46 50 53 52 52 53 52 51 48 44 40 37 32 28 24 22 20 17 14 13
264 268 270 272 273 274 274 278 283 292 298 302 305 307 302 299 303 322 341 349 355 4 16 27 35 40 38 35 32 31 28 25 24 25 27 28 29 31 32 33 33 33 32 30 27 24 22 22 23 23 24 24 23 23 22 20 19 18 20 25 34 47 69 84 90 86 84 82 80 75 69 65 63 63 62 60 56 52 49 46 44 43 43 47 51 55 55 55 54 53 52 50 46 41 37 33 28 25 21 18 15 13 12
261 265 268 270 271 271 271 273 279 289 297 304 314 328 334 331 325 326 335 344 353 6 22 32 39 45 43 38 33 33 33 31 28 29 30 30 29 28 28 27 27 28 28 27 24 22 21 22 23 22 23 22 22 21 19 17 14 12 15 22 31 41 58 79 93 92 88 87 85 81 75 69 64 64 63 61 58 52 50 47 44 43 43 47 52 56 56 56 56 54 52 50 47 43 38 33 29 26 21 17 14 13 11
264 266 269 271 274 276 276 277 280 291 301 316 339 7 14 11 3 355 359 360 7 17 29 37 43 46 45 41 35 34 36 36 35 33 32 31 29 27 25 23 22 23 22 21 18 17 18 19 20 20 21 21 19 18 16 13 10 7 7 13 23 32 43 63 86 94 89 86 84 82 78 72 66 64 64 62 58 52 49 46 43 41 41 46 54 59 57 57 58 57 53 50 47 43 37 32 27 24 19 14 11 9 7
270 271 275 279 283 285 278 272 268 270 279 309 11 35 36 37 37 35 36 36 34 32 36 42 45 46 44 42 41 40 41 42 43 40 37 34 31 27 23 22 21 21 18 15 13 12 12 13 14 15 16 16 15 13 9 7 5 1 359 4 11 21 29 42 61 80 87 85 82 80 79 75 69 65 65 63 59 52 47 43 40 37 37 44 53 60 59 58 57 58 56 53 48 43 36 30 25 21 15 9 4 1 360
277 281 285 286 284 279 270 258 245 231 223 200 108 63 53 51 53 53 56 60 57 48 44 46 48 47 43 42 43 45 47 50 51 49 43 39 35 31 26 23 21 20 16 12 9 9 7 7 6 6 8 8 7 4 1 1 360 356 355 355 360 6 17 27 37 49 73 82 81 77 78 77 74 70 67 64 59 53 47 42 38 34 35 42 51 60 60 58 56 56 55 54 51 46 37 28 21 17 11 4 358 355 356
279 280 279 279 279 278 270 255 231 216 204 178 138 101 77 67 64 63 64 66 64 57 49 47 48 50 45 44 44 47 52 56 57 56 50 45 40 37 31 26 22 20 15 11 8 7 4 2 360 360 1 1 360 358 355 354 353 353 352 350 349 350 359 12 25 26 40 66 81 82 80 79 80 79 75 69 63 57 50 42 36 32 34 41 49 56 58 58 55 52 50 49 48 45 36 27 19 15 8 1 357 355 354
269 269 273 279 283 284 271 251 227 209 192 172 151 132 112 96 84 75 67 65 62 57 44 34 35 47 52 52 49 51 56 60 61 60 55 50 46 43 37 30 24 18 13 9 7 5 2 359 356 355 356 356 355 353 351 349 347 346 348 347 344 339 339 346 2 12 12 33 73 96 92 87 86 87 84 79 71 63 54 45 36 31 33 41 48 53 55 55 54 51 48 44 41 37 30 22 16 13 7 3 359 355 350
264 271 279 284 284 280 264 245 227 210 191 174 161 150 138 125 113 103 83 71 64 57 38 19 11 25 52 59 59 59 65 66 65 62 58 53 48 45 40 32 23 14 8 5 3 1 360 357 354 351 350 350 349 347 346 344 341 339 342 343 339 330 324 324 332 349 343 333 334 126 104 96 91 92 91 84 75 66 58 49 40 32 33 40 48 54 55 55 54 52 48 43 36 30 24 18 13 10 6 3 359 353 344
266 272 276 276 275 272 259 242 227 216 195 179 167 157 143 136 133 137 121 103 88 80 55 19 358 359 39 57 63 64 72 72 68 63 59 54 48 44 38 29 19 7 1 355 353 354 356 355 350 344 342 342 342 341 340 337 335 333 334 333 327 319 316 315 311 293 276 270 261 140 100 97 95 92 89 82 74 65 60 53 47 40 37 39 45 53 52 51 51 52 48 41 34 28 21 15 11 8 5 1 356 348 338
258 260 264 266 269 269 257 236 214 207 195 181 164 143 124 118 146 192 171 145 130 125 130 322 321 339 32 54 64 71 77 76 72 66 61 55 49 42 34 24 14 2 353 347 344 347 350 349 345 339 337 337 337 336 333 331 329 327 324 321 317 316 318 316 305 274 258 260 278 51 90 96 98 92 84 75 66 58 55 50 46 42 37 34 35 44 46 46 46 48 46 40 32 26 18 12 8 6 3 358 351 341 334
250 251 255 259 261 261 252 230 204 197 190 176 159 145 132 119 49 285 275 250 204 203 222 250 278 313 27 58 78 95 89 82 76 70 64 58 51 42 30 18 7 357 350 344 343 345 347 344 341 333 336 338 337 333 329 328 325 321 317 316 317 321 323 321 314 297 283 296 18 64 91 98 100 91 78 65 55 50 47 44 40 37 32 24 15 7 34 44 47 44 44 39 32 26 16 10 6 4 360 354 345 338 333
246 244 245 248 250 252 244 224 199 188 182 172 165 161 152 147 157 258 276 283 288 305 290 284 285 308 357 39 123 120 93 85 79 73 66 58 50 41 27 11 360 355 350 347 346 347 348 344 338 330 338 341 339 332 327 325 323 319 318 320 323 326 325 325 326 332 352 35 70 85 94 96 94 86 72 58 49 44 43 40 36 32 27 12 352 333 21 29 33 35 42 41 36 29 19 11 6 1 356 349 342 337 335
242 240 240 242 244 243 232 211 187 177 179 177 173 168 163 162 169 193 214 215 204 193 269 278 284 314 320 287 240 108 90 85 83 77 67 57 48 36 19 5 358 356 353 351 350 350 350 347 341 335 343 343 337 328 325 325 325 322 324 326 329 329 329 334 343 360 27 63 86 92 92 90 86 82 75 65 54 45 42 39 36 30 20 359 344 354 23 26 24 21 28 41 54 44 28 16 8 1 352 346 340 336 334
239 239 239 240 239 233 219 196 180 177 182 180 175 170 169 171 179 193 205 208 204 202 228 252 267 278 274 273 272 99 93 90 86 82 71 59 47 32 16 5 360 357 357 355 352 349 352 349 345 339 344 342 337 330 330 330 329 326 329 332 333 332 335 346 3 24 53 78 90 93 90 86 82 81 80 76 69 58 48 42 36 28 13 352 347 9 25 24 19 15 17 28 57 92 50 25 11 358 349 342 337 334 332
236 236 236 235 231 222 208 193 182 179 182 180 176 171 171 174 182 195 204 210 217 227 241 250 254 248 252 257 255 101 98 94 89 82 75 64 48 27 17 9 3 1 360 356 352 349 354 353 348 341 340 339 337 334 334 331 329 328 333 336 336 334 343 1 23 42 67 84 91 91 90 87 84 81 79 79 76 70 59 48 36 23 4 348 352 13 22 21 16 12 10 17 38 105 78 39 15 356 343 337 333 330 327
232 232 231 227 220 209 201 194 187 181 180 178 174 169 167 169 178 190 191 189 207 241 249 249 244 233 244 248 219 90 92 93 92 85 78 66 46 24 17 11 7 3 359 354 352 353 355 353 349 343 338 334 332 332 332 330 330 333 338 339 339 339 356 17 34 48 71 84 88 88 89 89 88 83 79 75 72 68 61 49 34 14 352 347 357 14 18 17 13 9 5 7 18 68 83 63 16 355 340 333 328 324 320
228 228 225 218 209 200 198 195 189 181 175 171 168 166 164 167 171 175 164 165 194 230 241 242 236 232 244 252 76 83 89 94 97 95 82 60 33 21 15 10 4 358 354 354 355 356 353 350 347 343 336 332 329 329 330 332 335 340 342 342 342 346 7 25 39 53 75 84 87 89 91 90 87 83 79 74 68 60 51 37 19 359 338 337 348 5 13 12 8 4 1 359 3 28 67 84 18 354 338 329 322 317 313
223 222 218 211 202 196 193 189 182 175 169 165 163 166 171 170 165 154 154 174 202 217 225 227 227 229 229 89 81 85 95 100 100 94 79 45 17 17 11 2 354 348 350 353 355 354 351 348 345 341 336 334 334 334 336 339 341 345 345 344 345 350 8 26 44 72 87 92 96 102 102 97 90 86 81 77 72 66 50 28 360 340 323 325 337 356 7 8 4 360 357 355 357 15 45 65 20 353 335 323 316 312 310
218 217 212 204 196 190 185 178 173 171 169 166 164 168 177 172 160 147 164 187 203 205 207 212 209 191 127 99 95 97 96 99 100 97 84 40 3 6 359 349 342 340 345 349 351 350 347 344 340 337 337 337 337 338 341 343 345 347 345 343 343 346 355 18 55 80 92 98 103 110 108 107 105 99 84 83 87 89 77 38 319 305 301 309 327 350 1 3 0 357 355 354 358 14 36 51 25 358 329 315 310 309 309
213 209 198 189 183 178 170 168 168 169 169 169 169 171 172 165 156 152 170 188 199 191 181 173 158 130 115 109 107 106 102 98 100 108 100 41 355 343 329 325 327 332 340 345 347 346 341 337 334 334 336 337 338 340 343 345 346 344 340 339 340 344 350 13 51 80 94 98 100 95 94 98 102 100 96 109 127 132 147 203 264 281 281 292 314 344 356 359 358 356 355 358 5 20 34 40 23 3 317 305 303 304 306
203 191 175 166 158 147 141 146 156 164 165 164 158 139 127 127 137 154 163 164 156 110 117 121 122 114 114 111 109 108 108 105 99 109 103 56 353 320 306 307 315 326 333 339 340 337 331 328 328 331 335 338 340 341 343 343 342 339 337 338 340 343 350 10 55 96 109 114 115 114 106 101 107 120 151 175 181 177 178 198 247 271 270 280 302 338 350 354 355 356 357 4 15 29 37 39 24 358 323 312 310 309 308
191 176 164 155 148 141 141 147 157 167 160 154 144 129 123 126 142 180 153 125 102 80 104 123 126 121 119 113 110 109 108 106 105 110 103 69 349 307 300 303 309 316 323 328 328 322 318 319 321 325 331 336 339 339 338 337 336 336 335 335 336 336 337 338 348 149 146 149 155 158 150 148 159 192 212 220 222 216 199 214 253 270 268 278 299 332 345 350 353 356 360 11 25 37 40 37 17 356 338 327 320 315 313